Вернуться в каталог

STARLINK-11392

АктивенСвязьVLEO
NORAD 63056·PAYLOAD·🇺🇸 United States

Запущен Feb 21, 2025 с Cape Canaveral Space Force Station

Loading…

Ближайшие Пролёты (ближайшие 24 часа)

TLE

СвежийSource: CelesTrak SupGP

Эпоха: Sep 15, 2026, 02:12 UTC

1 63056C 25035E   26258.09215278  .00025943  00000+0  20161-3 0  2585
2 63056  42.9998 313.8415 0001510 263.4502 225.6850 15.70812861    15

Отслеживайте STARLINK-11392 в реальном времени с AllMySat

Download on the App Store